Theta_e
343 338 339 337 328 343 328 319 313 311 314 321 334 337 339 335 339 339 338 336 339 339 338 339 337 340 336 337 340 336 331 331 329 333 341 338 322 318 319 319 335 340 339
341 343 331 332 339 343 323 318 317 311 310 316 319 325 334 331 328 334 336 338 337 338 338 338 338 337 339 336 337 331 335 332 327 336 340 338 324 319 321 320 318 336 340
340 342 341 334 336 322 320 320 320 314 310 311 312 313 318 320 315 324 322 327 337 337 335 333 331 332 332 332 331 331 335 334 334 336 338 338 336 320 317 320 324 336 337
340 340 342 337 327 322 320 321 321 318 315 312 311 311 311 310 311 313 313 315 324 333 334 335 338 335 333 332 333 334 335 335 337 338 339 337 338 326 319 320 320 325 327
339 340 336 337 329 326 325 324 323 322 321 319 316 314 312 311 310 309 309 310 315 323 328 329 333 335 335 333 332 334 334 335 339 339 340 337 339 333 329 318 320 322 320
340 342 326 332 328 328 327 327 326 328 328 327 325 321 319 317 313 310 310 309 309 310 313 318 321 325 330 332 332 332 333 336 339 338 337 337 337 332 333 325 324 320 323
340 341 331 328 326 326 326 326 323 323 326 325 326 325 324 326 322 315 319 321 320 314 310 309 309 310 314 318 325 326 329 334 334 337 337 336 337 331 333 332 324 322 323
341 341 339 328 335 336 336 340 334 332 335 337 338 338 331 329 329 329 328 327 328 328 326 322 318 312 310 311 313 317 321 327 338 337 336 336 334 327 331 333 331 324 321
341 341 342 341 341 340 340 339 339 337 338 339 339 338 338 339 336 335 338 335 333 335 333 333 332 330 328 322 315 312 312 315 319 335 333 336 336 323 327 335 332 332 323
339 340 342 341 342 340 341 338 339 339 339 339 338 337 337 336 336 337 336 336 334 333 332 332 333 334 332 332 332 331 328 320 331 329 333 333 328 318 322 332 335 333 331
339 338 342 342 342 341 338 338 339 338 338 338 335 333 331 329 332 333 333 332 333 331 332 332 333 333 332 332 332 331 332 331 330 324 324 328 321 314 317 321 333 336 333
339 339 342 342 343 340 336 338 337 336 332 324 324 321 320 325 329 328 328 329 329 328 328 328 328 328 327 327 329 330 331 331 332 331 328 326 324 315 315 317 325 332 334
339 341 340 339 340 337 332 331 325 323 320 316 314 314 313 312 310 311 310 309 310 309 310 309 311 312 313 316 319 320 323 325 327 330 331 330 330 330 325 319 316 324 333
341 341 340 339 338 330 326 324 319 315 312 310 308 309 309 309 308 308 308 306 306 306 306 307 307 307 308 309 309 309 310 314 319 323 327 327 327 329 330 330 325 317 322
339 336 334 332 328 325 320 315 312 310 309 308 306 306 308 308 308 308 307 307 306 306 306 306 307 307 307 308 308 308 309 309 310 310 314 317 313 321 328 328 329 328 320
333 329 329 325 320 316 313 311 309 308 306 305 306 307 307 308 308 307 307 307 306 306 305 305 306 306 306 307 307 307 307 308 308 309 309 310 309 306 307 321 328 328 328
327 321 318 315 313 312 310 309 306 306 307 306 307 307 308 308 307 307 307 307 306 306 306 305 305 304 305 306 306 306 306 307 307 308 308 309 309 309 306 305 305 320 328
319 315 313 311 311 311 310 308 308 307 307 307 307 307 307 307 307 307 307 306 306 306 306 306 306 305 305 305 306 306 306 306 306 307 307 307 307 308 306 305 305 304 308
315 313 311 311 311 310 308 308 308 308 308 307 308 307 307 307 306 307 306 306 306 306 306 306 306 305 305 305 305 305 305 305 307 307 307 307 307 307 307 306 306 305 305
313 312 312 311 309 308 308 308 308 308 308 308 308 307 307 307 306 306 306 306 305 305 305 305 305 305 305 305 305 305 305 305 305 306 306 307 308 308 308 311 310 307 305
312 312 311 310 309 309 309 309 309 309 309 308 307 306 306 306 305 305 305 305 305 305 304 305 305 304 304 304 304 304 304 304 306 307 306 307 309 309 309 309 311 310 309
312 312 311 310 309 309 310 310 310 310 310 309 309 306 306 306 305 305 305 305 304 304 304 304 304 303 304 304 304 303 304 304 305 307 308 305 304 306 305 307 309 310 309
312 311 311 310 310 309 310 310 310 309 308 307 307 307 307 306 305 305 304 304 304 303 303 303 303 303 302 302 302 303 303 304 303 303 303 304 304 305 304 304 305 306 306
312 311 311 310 310 310 310 309 309 310 310 311 310 309 308 306 305 304 304 303 303 303 303 303 302 302 301 301 301 302 302 302 302 302 302 302 303 303 303 303 303 303 304
312 312 311 310 310 309 309 309 309 310 311 310 309 308 306 305 305 304 304 303 303 303 302 301 301 301 300 300 300 300 301 301 301 301 302 302 302 302 303 303 303 303 304
312 312 311 310 309 309 309 309 309 309 310 310 309 307 306 305 305 304 303 303 302 301 301 300 300 300 300 300 299 299 299 300 300 300 301 301 301 301 301 301 302 302 302
Wind_Speed
5 3 6 3 4 5 7 6 8 7 6 3 3 6 8 5 7 10 11 8 11 10 10 10 11 11 10 12 12 14 15 16 16 16 20 21 20 21 20 17 14 14 13
9 6 6 4 6 4 4 5 8 8 6 5 3 2 2 7 4 4 5 7 6 9 9 8 9 8 10 10 10 12 14 16 20 21 20 21 19 19 20 19 15 13 14
9 5 5 5 5 4 5 6 7 8 7 6 5 5 3 4 5 4 4 3 4 5 7 7 6 5 6 8 8 11 12 14 16 20 17 14 16 19 16 17 16 11 10
9 7 5 7 5 5 5 6 6 6 7 8 7 7 6 6 6 5 4 3 2 3 4 5 6 6 5 6 7 8 10 12 15 18 10 10 12 17 17 14 13 12 10
9 8 6 6 4 5 5 5 5 5 5 6 7 7 6 6 7 6 6 5 3 3 3 3 4 4 5 6 6 6 7 11 14 12 10 12 7 15 17 14 12 10 10
9 7 7 6 5 5 5 5 5 4 4 5 5 5 6 6 6 6 7 7 6 4 3 3 4 5 6 5 6 6 6 7 11 7 8 10 9 13 14 16 13 10 10
9 6 7 8 7 7 8 8 7 7 6 7 7 6 5 5 6 6 6 6 7 7 6 6 6 6 6 7 7 7 6 4 7 6 6 7 10 11 12 14 13 10 8
9 9 5 8 7 6 7 7 6 8 7 5 6 7 6 5 4 5 6 6 7 7 7 8 8 8 9 9 8 8 7 6 6 6 5 6 11 8 7 10 11 11 7
8 8 4 4 4 4 4 4 3 2 3 5 6 7 6 4 4 3 4 6 7 7 9 10 10 10 11 11 10 10 10 8 5 6 4 6 10 8 5 6 8 8 8
7 7 6 4 5 3 4 3 1 1 3 3 5 8 7 6 6 4 7 7 9 11 9 10 11 10 11 12 12 12 11 9 6 7 6 12 11 8 5 5 6 6 8
8 7 9 6 7 7 2 3 2 4 3 4 7 6 6 4 6 6 8 8 11 11 10 11 12 10 10 13 15 12 12 7 9 6 5 13 13 10 7 7 8 7 7
10 9 3 8 6 6 4 2 4 3 2 3 2 4 4 4 4 7 8 9 10 10 12 13 13 12 10 8 8 11 9 10 9 9 10 15 12 11 10 9 11 11 9
10 8 7 4 4 6 3 2 3 3 3 5 7 5 5 5 6 5 7 8 8 10 10 11 11 12 13 13 11 11 11 11 10 10 14 19 15 14 12 11 12 14 13
10 11 9 8 9 8 6 6 5 4 5 5 5 5 5 6 7 7 8 10 11 12 12 12 12 13 13 12 12 12 12 12 12 11 13 20 18 18 18 16 14 14 16
13 11 10 10 9 8 7 6 6 6 5 5 6 7 7 8 8 9 9 10 12 13 13 13 13 14 14 13 13 13 13 13 14 13 15 21 24 20 21 20 20 18 17
13 11 10 10 9 8 7 7 7 6 6 6 7 8 9 9 8 9 9 11 13 14 14 13 14 15 14 14 15 15 15 15 14 15 16 18 23 24 21 23 23 23 22
12 11 11 10 9 9 9 7 6 7 6 6 7 7 9 9 9 9 10 12 14 14 16 16 15 16 16 16 16 16 16 16 16 16 17 18 19 22 25 23 22 25 26
13 11 11 11 11 10 8 7 7 7 5 5 4 4 6 8 9 9 9 12 16 17 18 20 20 20 19 18 19 18 17 18 18 18 19 19 20 21 23 25 26 24 25
13 13 12 12 11 11 10 8 7 6 4 3 2 0 3 5 7 6 9 11 14 16 16 20 20 21 22 22 20 20 22 22 19 19 20 20 20 22 25 24 23 27 26
13 12 11 12 12 11 9 8 6 5 4 3 4 3 2 5 8 8 9 11 15 16 17 22 21 24 24 21 20 22 20 21 23 22 20 19 18 19 21 21 19 23 23
14 13 12 12 12 11 9 8 6 6 6 6 6 6 7 7 9 10 12 15 17 19 21 22 23 26 27 21 21 22 23 24 14 15 21 18 16 17 18 19 20 20 16
15 13 13 12 13 11 9 8 6 6 8 8 11 11 11 11 12 14 15 17 18 20 20 21 23 25 22 18 19 22 18 21 14 7 11 16 22 21 21 20 19 19 19
15 14 13 13 13 12 10 10 11 10 14 14 14 12 11 14 16 17 17 18 18 19 22 25 22 21 21 20 17 15 13 11 23 24 20 19 18 21 24 24 23 23 24
16 14 14 13 13 13 13 13 13 11 11 10 10 11 12 14 16 15 16 18 21 21 21 21 19 19 21 23 21 19 21 26 28 29 27 24 26 27 28 28 29 27 26
14 14 14 14 14 15 14 16 15 14 14 13 13 13 13 12 13 14 16 17 19 20 22 23 23 21 21 23 24 24 25 26 26 30 33 30 28 27 27 26 26 25 25
13 14 15 14 15 15 16 15 17 18 16 15 15 14 14 14 15 15 16 18 21 24 24 24 24 23 24 24 26 26 27 28 28 28 31 32 31 30 30 30 30 30 30
Wind_Direction
126 186 132 112 78 88 28 46 62 56 62 114 74 64 59 48 60 65 65 60 59 64 63 62 66 58 56 52 55 50 45 44 42 44 42 27 42 46 51 53 70 70 71
135 150 129 110 91 94 32 71 65 60 65 80 83 82 69 40 41 53 48 58 58 57 60 65 63 63 56 57 46 39 42 45 52 51 40 18 28 38 42 49 60 78 72
130 139 122 130 102 71 92 86 70 66 67 71 73 63 60 22 34 45 28 31 48 59 55 45 43 40 35 43 41 37 40 44 55 61 46 22 8 31 37 43 56 70 73
128 126 159 136 85 74 86 85 74 72 71 71 70 66 62 56 56 57 43 31 338 31 36 42 39 31 24 27 32 32 37 43 51 52 38 46 15 26 33 39 50 55 63
128 139 192 135 94 81 81 83 79 76 72 70 69 66 61 54 53 54 51 44 41 18 10 359 352 1 4 360 4 10 25 44 51 41 18 52 42 20 31 32 33 46 51
125 140 134 128 98 91 90 86 89 79 73 69 63 60 57 51 52 54 54 51 47 35 15 344 324 319 320 334 342 348 359 49 47 30 12 11 350 8 24 28 29 37 47
133 140 128 124 113 102 98 91 72 85 86 75 62 52 45 43 47 52 42 37 34 25 19 13 358 337 319 317 318 324 341 360 53 8 1 0 316 359 15 21 24 30 38
139 135 163 137 122 109 100 107 81 84 80 58 47 43 45 38 34 37 30 25 28 23 17 8 4 356 349 340 330 323 322 339 26 344 349 326 308 345 6 7 15 23 24
143 140 142 137 135 132 123 103 104 90 58 39 43 39 18 14 6 23 31 16 10 8 13 14 8 7 2 356 349 340 332 325 323 310 337 298 299 317 333 347 360 7 11
156 157 174 167 163 138 147 146 64 341 339 5 4 353 343 325 337 318 326 340 342 340 336 342 341 339 349 350 351 352 349 356 2 314 324 276 285 303 299 291 317 336 344
177 171 162 162 175 188 204 189 17 324 315 323 330 335 26 5 343 329 327 328 321 321 324 327 323 326 335 345 341 332 343 336 337 319 295 277 294 300 294 276 271 292 299
195 192 196 178 195 134 180 263 320 325 309 54 57 64 55 4 342 329 317 312 307 320 325 323 320 325 328 332 323 338 328 321 318 307 293 287 300 296 295 284 265 267 275
199 187 198 202 209 172 157 114 102 105 84 74 71 55 57 44 30 20 356 339 338 337 337 335 332 328 326 325 327 323 318 317 306 301 288 285 288 293 292 290 279 262 265
179 186 176 176 171 165 152 135 122 116 100 79 71 60 59 53 39 30 19 10 5 1 356 351 348 341 338 335 327 319 314 310 303 297 290 288 286 285 284 285 282 272 263
187 170 161 160 155 144 140 134 123 110 100 91 78 72 66 50 44 35 28 19 11 7 1 354 349 343 338 333 328 322 317 310 302 294 281 285 289 281 277 277 275 273 267
183 166 158 152 155 146 139 134 128 129 121 104 87 72 65 56 50 46 33 19 10 4 1 353 348 338 337 331 325 323 317 310 303 295 292 287 293 296 278 271 270 269 267
182 166 158 156 153 150 145 147 146 124 114 99 84 65 55 51 49 37 29 18 13 4 359 354 347 342 335 330 324 319 313 308 303 301 295 284 283 288 296 286 271 266 263
181 169 169 168 160 164 156 143 137 132 123 109 95 63 44 36 32 25 16 6 6 1 359 355 349 342 335 329 322 317 313 307 303 297 292 290 288 284 279 285 286 275 263
182 180 173 168 170 167 159 154 150 147 145 158 142 40 358 11 19 6 360 358 352 353 352 346 343 338 333 325 321 312 308 307 302 298 293 290 289 289 289 284 279 278 275
182 182 180 175 175 169 168 167 173 178 186 198 205 222 275 314 336 341 341 338 338 338 336 337 334 332 327 319 312 307 309 298 295 294 293 290 286 284 281 284 276 276 278
184 186 186 183 183 182 180 188 194 205 221 227 244 254 275 281 306 321 322 326 326 327 327 330 327 324 322 316 313 307 302 317 307 290 287 284 287 287 285 289 287 290 281
190 191 195 195 194 197 197 206 216 235 236 246 251 270 276 287 293 304 309 314 319 316 318 319 318 316 311 312 306 308 310 306 308 300 284 278 285 279 282 280 277 275 276
197 198 201 206 207 208 214 220 230 234 239 260 266 269 273 281 291 296 301 306 308 309 312 315 312 303 301 300 297 290 304 292 302 287 291 283 276 272 278 276 271 271 269
201 205 207 213 218 222 228 233 244 246 259 267 257 255 257 277 283 286 294 301 305 306 304 303 301 293 291 291 292 283 275 278 286 291 284 274 272 273 269 266 270 274 271
206 209 214 219 224 229 230 246 246 253 258 266 261 267 271 272 277 281 290 295 299 299 297 294 294 292 285 282 281 282 279 278 275 278 283 282 278 273 274 267 269 270 268
205 212 220 223 231 236 245 245 256 256 260 263 266 271 276 276 280 285 290 291 294 294 294 290 286 284 283 280 278 276 274 273 275 275 279 280 278 276 272 273 273 269 267